COSMOS 1275 DEB

Satellite information

Favourite Embed

Satellite Type and Status

DEBRISIN ORBIT

Key statistics

Satellite COSMOS 1275 DEB at a glance.

Uptime

16042

Days in orbit

Revolutions

≈ 14.3

Per day

Orbit

LEO

Low Earth Orbit

Inclination

82.8

Latest

Satellite identification and parameters

Extended collection of information and parameters for COSMOS 1275 DEB.

Object identification

Identified? True

Debris? True

Object name: COSMOS 1275 DEB

International designator: 1981-053FU

Object number (NORAD): 13472

Object ID (CCSDS): 13472

Country: COMMONWEALTH OF INDEPENDENT STATES (CIS)

Current information (Y/N): Y

RCS size: SMALL

Orbital parameters

Period: 100.556 minutes

Inclination: 82.8461 deg

SMA: 7163.045 km

Apoapsis: 796.634 km

Periapsis: 773.185 km

RAAN: 309.0991 deg

Eccentricy: 0.0016368

Argument of periapsis: 99.2743 deg

Mean anomaly: 25.2664 deg

Mean motion: 14.32043733 rev/day

Mean motion (dot): 0.00007246 rev/day2

B* drag term: 0.0026876 1/REarth

Two-line elements (TLE)

Creation date: May 6, 2025, 3:54 a.m.

Reference frame: TEME

Reference center: EARTH

Epoch: May 4, 2025, 11:51 p.m. UTC

TLE line 0: 0 COSMOS 1275 DEB

TLE line 1: 1 13472U 81053FU 25124.99440245 .00007246 00000-0 26876-2 0 9995

TLE line 2: 2 13472 82.8461 309.0991 0016368 99.2743 25.2664 14.32043733190866

Live tracking on map

Real-time ground track for satellite COSMOS 1275 DEB.

In-orbit conjunctions

A list of the most updated potential collisions computed for object COSMOS 1275 DEB.

Target Orbit TCA Probability of collision Miss distance Type
CZ-6A DEB LEO 2024-11-24 03:24:25 0.0001501651 106.0 (m) DEBRIS
DELTA 1 DEB SSO 2024-10-17 12:02:05 0.0002427433 125.0 (m) DEBRIS
STELLA SSO 2024-09-23 00:11:13 0.001179047 108.0 (m) PAYLOAD

Associated space launch

Navigation satellite providing location information for the Tsiklon-B navigation system

COSMOS 1275 DEB was lifted into orbit during the mission ‘Kosmos-3M | Parus 27’, on board a Kosmos-3M space rocket.

The launch took place on June 4, 1981, 3:41 p.m. from 132/2.

For more information about the launch, click the button.

Launch to space Kosmos-3M | Parus 27
Kosmos-3M | Parus 27

Agency: N/A

Status: Launch Successful

Launch date: June 4, 1981, 3:41 p.m. UTC

Rocket: Kosmos-3M

Launch pad: 132/2

Location: Plesetsk Cosmodrome, Russian Federation

...

Latest news about this satellite

There are no fresh news available about this satellite. Check back as we update our databases every day.


Newsletter sign-up

Weekly statistics, charts and insights to help you stay on top of the space industry.